Location: Amherst
(42.5000°N, 72.5000°W)
Time: 16:16:44
(UTC-04:00)

ISS - Pass Details

Date: 21 July 2018
Orbit: 402 x 408 km, 51.6° (Epoch: 17 July)

Event Time Altitude Azimuth Distance (km) Brightness Sun altitude
Rises 21:27:30 0° 234° (SW) 2,308 0.2 -10.9°
Reaches altitude 10° 21:29:33 10° 234° (SW) 1,453 -0.9 -11.2°
Maximum altitude 21:32:49 86° 146° (SE) 409 -3.9 -11.6°
Drops below altitude 10° 21:36:06 10° 57° (ENE) 1,464 -1.1 -12.1°
Sets 21:38:11 0° 57° (ENE) 2,327 -0.1 -12.4°
